Volver al catálogo

STARLINK-33725

ActivoComunicacionesVLEO
NORAD 63717·PAYLOAD·🇺🇸 United States

Lanzado Apr 28, 2025 desde Vandenberg Space Force Base

Loading…

Próximos Pases (próximas 24 horas)

TLE

ActualizadoSource: CelesTrak SupGP

Época: Sep 15, 2026, 03:13 UTC

1 63717C 25087W   26258.13451389 -.00024944  00000+0 -73723-3 0  2580
2 63717  53.1595  58.5319 0001136  86.7236 127.0429 15.34391787    12

Sigue STARLINK-33725 en tiempo real con AllMySat

Download on the App Store